Tracking 19920 objects as of 15-Oct-2019
HD Live streaming from Space Station
objects crossing your sky now

IRIDIUM 33 DEB

Track IRIDIUM 33 DEB now!
10-day predictions


NORAD ID: 34095
Int'l Code: 1997-051DE
Perigee: 668.9 km
Apogee: 741.8 km
Inclination: 86.4 °
Period: 98.7 minutes
Semi major axis: 7076 km
RCS: 0.059 m2 (small)
Launch date: September 14, 1997
Source: United States (US)
Launch site: TYURATAM MISSILE AND SPACE COMPLEX (TTMTR)

Note: This is SATELLITE DEBRIS
aabbcc
Your satellite tracking list
Your tracking list is empty




NASA's NSSDC Master Catalog

Two Line Element Set (TLE):
1 34095U 97051DE  19287.68866489  .00002592  00000-0  54419-3 0  9999
2 34095  86.3833 271.0111 0051533 203.7899 156.0928 14.58450186560927
Source of the keplerian elements: AFSPC